Back to catalog

STARLINK-35335

AliveCommunicationsVLEO
NORAD 66180·PAYLOAD·🇺🇸 United States

Launched Oct 26, 2025 from Cape Canaveral Space Force Station

Loading…

Next Passes (next 24 hours)

TLE

FreshSource: CelesTrak SupGP

Epoch: Sep 14, 2026, 15:15 UTC

1 66180C 25243D   26257.63590278 -.00024712  00000+0 -73003-3 0  2579
2 66180  53.1567  85.2841 0001190  95.4730 319.6299 15.34406621    19

Track STARLINK-35335 in real time with AllMySat

Download on the App Store